Regional Weather Roundup
Issued by NWS

Home | Current Version | Previous Version | Graphics & Text | Print | Product List | Glossary On
Versions: 1 2 3 4 5 6 7 8 9 10 11 12 13 14 15 16 17 18 19 20 21 22 23 24 25 26
000
ASUS45 KBOI 172010
RWRID

IDAHO REGIONAL WEATHER ROUNDUP
NATIONAL WEATHER SERVICE BOISE ID
100 PM MST SAT FEB 17 2018

NOTE: "FAIR" INDICATES FEW OR NO CLOUDS BELOW 12000 FEET
WITH NO SIGNIFICANT WEATHER AND/OR OBSTRUCTIONS TO VISIBILITY

IDZ012-014-172100-
SOUTHWEST IDAHO


CITY           SKY/WX    TMP DP  RH WIND       PRES   REMARKS
BOISE          CLOUDY    45  30  55 SE18G26   29.95F
CALDWELL       CLOUDY    47  31  53 E13       29.96F
MOUNTAIN HOME  PTSUNNY   49  28  44 E10       29.97F
$$

IDZ016-017-172100-
SOUTHCENTRAL IDAHO


CITY           SKY/WX    TMP DP  RH WIND       PRES   REMARKS
BURLEY         SUNNY     50  20  30 W14G22    29.97F
JEROME         MOSUNNY   47  24  40 W3        29.99F
TWIN FALLS     SUNNY     51  23  33 S13G22    29.98F
$$

IDZ019>023-172100-
SOUTHEAST IDAHO


CITY           SKY/WX    TMP DP  RH WIND       PRES   REMARKS
IDAHO FALLS    PTSUNNY   42  25  50 SW28G37   29.95F
POCATELLO      MOSUNNY   45  24  43 S15       29.99F
REXBURG        PTSUNNY   38  25  59 SW25G39   29.93F WCI  27
$$

IDZ006-010-011-018-031-032-172100-
CENTRAL IDAHO MOUNTAINS


CITY           SKY/WX    TMP DP  RH WIND       PRES   REMARKS
MCCALL         LGT SNOW  31  29  92 SE10      29.84F VSB 3/4 WCI  22
HAILEY         PTSUNNY   37  27  65 S7        29.98F WCI  32
STANLEY          N/A     34  21  59 S12       29.88F WCI  25
SALMON         CLOUDY    43  19  38 SW12G17   29.76F
CHALLIS        CLOUDY    45   9  23 SW9       29.79F
$$

IDZ002-004-006-007-026-172100-
NORTHERN IDAHO


CITY           SKY/WX    TMP DP  RH WIND       PRES   REMARKS
LEWISTON       CLOUDY    44  36  73 S16       29.67F
LOWELL           N/A     32  32 100 N3        29.78F
COEUR D`ALENE  LGT SNOW  33  32  96 S14       29.57F FOG     WCI  23
MULLAN PASS    HVY SNOW  24  22  91 SW8G25    29.50F VSB<1/4 WCI  15
$$




USA.gov is the U.S. government's official web portal to all federal, state and local government web resources and services.